Voltar ao catálogo

COSMOS 1861

AtivoNavegaçãoPO
NORAD 18129·PAYLOAD·🇷🇺 Russia

Lançado Jun 23, 1987 de Plesetsk Cosmodrome

Loading…

Próximas Passagens (próximas 24 horas)

TLE

AtualizadoSource: Space-Track

Época: Sep 14, 2026, 00:36 UTC

1 18129U 87054A   26257.02507191  .00000029  00000-0  14606-4 0  9994
2 18129  82.9211 257.0532 0013005  69.5383 313.1011 13.73272846965736

Acompanhe COSMOS 1861 em tempo real com AllMySat

Download on the App Store